Home   Weather   Shenzhen   Past weeks

Flag for China Past Weather in Shenzhen, Guangdong, China — Yesterday and Last 2 Weeks

Now
79 °F

Sunny.


Feels Like: 81 °F
Forecast: 67 / 83 °F
Wind: 8 mph from Southwest

Location: Shenzhen Airport

Current Time: Apr 30, 2017 at 11:47:04 am

Latest Report: Apr 30, 2017 at 11:00 am


Visibility: 10 mi

Pressure: 29.95 "Hg

Humidity: 65%

Dew Point: 66 °F

Location of ShenzhenLocation

Past Weather in Shenzhen — Graph

°F

Shenzhen Temperature Yesterday

Maximum temperature yesterday: 79 °F (at 1:00 pm)
Minimum temperature yesterday: 68 °F (at 3:00 am)
Average temperature yesterday: 73 °F

High & Low Weather Summary for the Past Weeks

 TemperatureHumidityPressure
High84 °F (Apr 18, 2:00 pm)100% (Apr 26, 11:00 pm)30.04 "Hg (Apr 26, 11:00 pm)
Low64 °F (Apr 22, 10:00 am)48% (Apr 28, 1:00 pm)29.68 "Hg (Apr 21, 2:00 pm)
Average75 °F81%29.88 "Hg
* Reported Apr 15 10:00 am — Apr 30 10:00 am, Shenzhen, Weather by CustomWeather, © 2017

Note: Actual official high and low records may vary slightly from our data, if they occured in-between our weather recording intervals... More about our weather records

Advertising

Shenzhen Weather History for the Previous 24 Hours

Scroll right to see more
 ConditionsComfort  
Time TempWeatherWind HumidityBarometerVisibility
10:00 am
Sun, Apr 30
77 °FSunny.6 mph65%29.95 "Hg10 mi
9:00 am77 °FPassing clouds.3 mph65%29.95 "HgN/A
8:00 am75 °FClear.3 mph69%29.95 "Hg5 mi
7:00 am72 °FFog.3 mph73%29.92 "Hg3 mi
6:00 am68 °FFog.3 mph83%29.92 "Hg2 mi
5:00 am70 °FClear.6 mph78%29.92 "Hg4 mi
4:00 am70 °FClear.3 mph78%29.89 "Hg4 mi
3:00 am70 °FClear.3 mph83%29.92 "Hg4 mi
2:00 am72 °FClear.6 mph73%29.92 "Hg10 mi
1:00 am73 °FClear.8 mph74%29.92 "Hg10 mi
12:00 am73 °FClear.10 mph74%29.95 "Hg10 mi
11:00 pm
Sat, Apr 29
73 °FClear.10 mph78%29.95 "Hg10 mi
10:00 pm73 °FClear.10 mph74%29.95 "Hg10 mi
9:00 pm73 °FClear.13 mph78%29.92 "Hg10 mi
8:00 pm73 °FClear.13 mph78%29.92 "Hg10 mi
7:00 pm75 °FClear.15 mph74%29.92 "Hg10 mi
6:00 pm75 °FSunny.15 mph74%29.89 "Hg10 mi
5:00 pm77 °FSunny.13 mph69%29.89 "Hg10 mi
4:00 pm79 °FClear.10 mph61%29.89 "Hg5 mi
3:00 pm79 °FClear.8 mph61%29.92 "Hg4 mi
2:00 pm79 °FHaze.8 mph65%29.92 "Hg3 mi
1:00 pm79 °FHaze.6 mph61%29.95 "Hg3 mi
12:00 pm77 °FClear.6 mph69%29.98 "Hg4 mi
11:00 am75 °FPassing clouds.6 mph69%29.98 "Hg4 mi
Weather by CustomWeather, © 2017

See weather overviewHow to use our weather pages